STARLINK-35594 (66157 NORAD) Tracking and Keplerian Element Data

This shows tracking and keplerian element data for the satellite.

Feedback or suggestion? Click here.




ElementValue
Catalog66157
NameSTARLINK-35594
Epoch Orbit982
Epoch Day354.20835124
Epoch Year2025
RAAN71.6991
Inclination53.1619
Eccentricity0.000107
Argument of Perigee75.7453
Mean Anonmoly284.3666
Mean Motion15.30209144
Decay Rate0.00018024
L11 66157U 25240M 25354.20835124 .00018024 00000+0 61903-3 0 9998
L22 66157 53.1619 71.6991 0001070 75.7453 284.3666 15.30209144 9827



Live tracking and technical data element details for STARLINK-35594 (NORAD 66157). STARLINK-35594 can be tracked NOW for your location showing map with azimuth and elevation plus other details from your city location.







IsCatalogInMostPopularTable: catalog: 66157, numindb: 3
Update: records affected: 1



GetName: 66157 STARLINK-35594

Hit Count: updated at: Sat, 07 Feb 2026 08:59:37 GMT